Location: Abundant Grace Fellowship
(35.0349°N, 90.0924°W)
Time: 22:14:35
(UTC+00:00)

NOAA 6 - Pass Details

Date: 18 January 2026
Orbit: 767 x 780 km, 98.6° (Epoch: 11 February)

Event Time Altitude Azimuth Distance (km) Brightness Sun altitude
Rises 00:23:56 0° 150° (SSE) 3,223 7.1 -14.3°
Reaches altitude 10° 00:26:19 10° 144° (SE) 2,301 6.3 -14.7°
Maximum altitude 00:31:08 45° 72° (ENE) 1,038 4.2 -15.7°
Drops below altitude 10° 00:35:59 10° 1° (N) 2,321 6.3 -16.6°
Sets 00:38:22 0° 355° (N) 3,254 7.2 -17.1°
